Location: Limerick
(52.6800°N, 8.6400°W)
Time: 21:05:34
(UTC+01:00)

ISS - All Passes

Search period start: 21 June 2018 00:00
Search period end: 01 July 2018 00:00
Orbit: 402 x 406 km, 51.6° (Epoch: 22 June)

Date Brightness Start Highest point End Pass type
(mag) Time Alt. Az. Time Alt. Az. Time Alt. Az.
21 Jun - 10:20:38 10° S 10:22:47 16° SE 10:24:55 10° ESE daylight
21 Jun - 11:55:32 10° WSW 11:58:44 50° SSE 12:01:57 10° E daylight
21 Jun - 13:31:49 10° W 13:35:06 75° S 13:38:24 10° E daylight
21 Jun - 15:08:17 10° W 15:11:25 41° SSW 15:14:32 10° SE daylight
21 Jun - 16:45:58 10° WSW 16:47:15 12° SW 16:48:32 10° SSW daylight
22 Jun - 09:30:02 10° SSE 09:30:44 11° SE 09:31:25 10° SE daylight
22 Jun - 11:03:26 10° SW 11:06:31 37° SSE 11:09:36 10° E daylight
22 Jun - 12:39:30 10° W 12:42:48 74° S 12:46:05 10° E daylight
22 Jun - 14:15:56 10° W 14:19:10 54° SSW 14:22:23 10° ESE daylight
22 Jun - 15:52:51 10° W 15:55:10 18° SW 15:57:29 10° S daylight
23 Jun - 10:11:29 10° SSW 10:14:19 27° SSE 10:17:09 10° E daylight
23 Jun - 11:47:12 10° WSW 11:50:29 67° S 11:53:45 10° E daylight
23 Jun - 13:23:36 10° W 13:26:52 66° SSW 13:30:09 10° ESE daylight
23 Jun - 15:00:13 10° W 15:03:02 26° SSW 15:05:50 10° SSE daylight
24 Jun - 09:19:46 10° SSW 09:22:09 19° SE 09:24:32 10° E daylight
24 Jun - 10:54:57 10° WSW 10:58:11 55° SSE 11:01:25 10° E daylight
24 Jun - 12:31:16 10° W 12:34:33 74° S 12:37:50 10° E daylight
24 Jun - 14:07:45 10° W 14:10:49 36° SSW 14:13:52 10° SE daylight
24 Jun - 15:46:26 10° SW 15:46:35 10° SW 15:46:45 10° SW daylight
25 Jun - 08:28:36 10° SSE 08:30:02 12° SE 08:31:29 10° ESE daylight
25 Jun - 10:02:45 10° SW 10:05:53 42° SSE 10:09:01 10° E daylight
25 Jun - 11:38:54 10° W 11:42:12 75° S 11:45:30 10° E daylight
25 Jun - 13:15:21 10° W 13:18:33 49° SSW 13:21:44 10° ESE daylight
25 Jun - 14:52:26 10° WSW 14:54:30 16° SW 14:56:33 10° S daylight
26 Jun - 09:10:42 10° SW 09:13:38 30° SSE 09:16:34 10° E daylight
26 Jun - 10:46:33 10° WSW 10:49:51 70° S 10:53:08 10° E daylight
26 Jun - 12:22:58 10° W 12:26:14 62° SSW 12:29:29 10° ESE daylight
26 Jun - 13:59:39 10° W 14:02:20 23° SSW 14:05:00 10° SSE daylight
27 Jun - 08:18:51 10° SSW 08:21:25 21° SSE 08:23:59 10° E daylight
27 Jun - 09:54:14 10° WSW 09:57:29 59° SSE 10:00:45 10° E daylight
27 Jun - 11:30:35 10° W 11:33:52 72° S 11:37:09 10° ESE daylight
27 Jun - 13:07:06 10° W 13:10:06 33° SSW 13:13:05 10° SE daylight
28 Jun - 07:27:23 10° S 07:29:15 14° SE 07:31:06 10° ESE daylight
28 Jun - 09:01:59 10° SW 09:05:09 46° SSE 09:08:20 10° E daylight
28 Jun - 10:38:11 10° W 10:41:29 76° S 10:44:47 10° E daylight
28 Jun - 12:14:38 10° W 12:17:49 45° SSW 12:20:58 10° SE daylight
28 Jun - 13:51:58 10° WSW 13:53:42 14° SW 13:55:26 10° S daylight
29 Jun - 08:09:50 10° SW 08:12:50 34° SSE 08:15:52 10° E daylight
29 Jun - 09:45:48 10° WSW 09:49:05 73° S 09:52:23 10° E daylight
29 Jun - 11:22:13 10° W 11:25:28 58° SSW 11:28:42 10° ESE daylight
29 Jun - 12:59:00 10° W 13:01:31 20° SSW 13:04:01 10° SSE daylight
30 Jun - 07:17:51 10° SSW 07:20:34 24° SSE 07:23:17 10° E daylight
30 Jun - 08:53:25 10° WSW 08:56:41 63° SSE 08:59:57 10° E daylight
30 Jun - 10:29:47 10° W 10:33:05 69° S 10:36:21 10° ESE daylight
30 Jun - 12:06:22 10° W 12:09:16 29° SSW 12:12:10 10° SE daylight
